Orbital Elements at Epoch 2459200.5 (2020-Dec-17.0) TDB
Reference: JPL 14 (heliocentric ecliptic J2000)
Element | Value | Uncertainty (1-sigma) | Units |
e | .05727162375190791 | 7.2632e-08 | |
a | 3.1183333867873 | 4.2075e-08 | au |
q | 2.939741370326205 | 2.5157e-07 | au |
i | 4.190787418260571 | 8.9199e-06 | deg |
node | 15.32319544468009 | 7.2327e-05 | deg |
peri | 295.0781853474185 | 0.00010701 | deg |
M | 312.3495579780051 | 7.8816e-05 | deg |
tp | 2459466.723676459871 (2021-Sep-09.22367646) | 0.00044037 | TDB |
period | 2011.324962763503 5.51 | 4.0707e-05 1.114e-07 | d yr |
n | .1789864923196549 | 3.6225e-09 | deg/d |
Q | 3.296925403248395 | 4.4484e-08 | au |
|
| | Orbit Determination Parameters
Additional Information
|